(251418) = 2008 AP65

Discovered at Kitt Peak on 2008-01-11 by Spacewatch.

Orbit

Orbit type: Main Belt

Note: WebGL enabled browser required.

epoch2023-09-13.0
epoch JD2460200.5
perihelion date2020-06-30.74769
perihelion JD2459031.24769
argument of perihelion (°)132.61258
ascending node (°)310.25997
inclination (°)4.74848
eccentricity0.0289371
perihelion distance (AU)2.5766519
Tisserand w.r.t. Jupiter3.4
ΔV w.r.t. Earth (km/sec)10.1
semimajor axis (AU)2.6534345
mean anomaly (°)266.62417
mean daily motion (°/day)0.22802960
aphelion distance (AU)2.730
period (years)4.32
P-vector [x]0.12214920
P-vector [y]0.88466079
P-vector [z]0.44994984
Q-vector [x]-0.99049928
Q-vector [y]0.13751005
Q-vector [z]-0.00146918
absolute magnitude16.43
phase slope0.15
uncertainty0
referenceMPEC 2023-Y111
observations used436
oppositions13
arc length (days)7725
first opposition used2002
last opposition used2023
residual rms (arc-secs)0.65
perturbers coarse indicatorM-v
perturbers precise indicator003Ek
first observation date used2002-11-05.0
last observation date used2023-12-30.0
computer nameMPCLINUX
JD of orbit computation2456909.207363
perihelion JD uncertainty (days)6.6337E-04
argument of perihelion uncertainty (°)1.5008E-04
ascending node uncertainty (°)3.9689E-05
inclination uncertainty (°)5.6167E-06
eccentricity uncertainty 3.8803E-08
perihelion distance uncertainty (AU)1.0782E-07
Minimum Orbit Intersection Distances (in AU)
for orbit epoch: 2460200.5, reference: E2023-YB1
Mercury2.26219
Venus1.85799
Earth1.59439
Mars0.95305
Jupiter2.33023
Saturn6.48328
Uranus15.8076
Neptune27.2414

Observations

451 total observations over interval: 2002 11 05.28168 – 2023 12 30.235391
These data are available for download (format description).

Date (UT) J2000 RA J2000 Dec Magn Location Ref
2002 11 05.28168 03 31 58.00 +26 47 46.8 19.8 R 644 – Palomar Mountain/NEAT MPS 240841
2002 11 05.36050 03 31 53.36 +26 47 34.3 20.8 R 644 – Palomar Mountain/NEAT MPS 240841
2002 11 05.43528 03 31 49.01 +26 47 22.7 20.0 R 644 – Palomar Mountain/NEAT MPS 240841
2002 11 12.24753 03 25 09.92 +26 26 07.4 19.2   704 – Lincoln Laboratory ETS, New Mexico MPS 330831
2002 11 12.26478 03 25 08.87 +26 26 04.5 19.9   704 – Lincoln Laboratory ETS, New Mexico MPS 330831
2002 11 12.28210 03 25 07.79 +26 25 59.3 20.4   704 – Lincoln Laboratory ETS, New Mexico MPS 330831
2002 11 24.17134 03 13 22.82 +25 36 08.9 19.2 R 644 – Palomar Mountain/NEAT MPS 240841
2002 11 24.19219 03 13 21.57 +25 36 03.0 19.2 R 644 – Palomar Mountain/NEAT MPS 240841
2002 12 11.20564 02 59 48.39 +24 12 49.3 20.6 R 644 – Palomar Mountain/NEAT MPS 240841
2002 12 11.22684 02 59 47.60 +24 12 43.5 20.4 R 644 – Palomar Mountain/NEAT MPS 240841
2002 12 11.24797 02 59 46.76 +24 12 37.6 20.2 R 644 – Palomar Mountain/NEAT MPS 240841
2002 12 27.17968 02 53 53.25 +23 06 35.8 20.5 R 644 – Palomar Mountain/NEAT MPS 240841
2002 12 27.20103 02 53 52.99 +23 06 31.4   644 – Palomar Mountain/NEAT MPS 240841
2002 12 27.22120 02 53 52.83 +23 06 27.6   644 – Palomar Mountain/NEAT MPS 240841
2006 10 20.21481 00 45 30.51 +12 36 54.6 19.7 R 644 – Palomar Mountain/NEAT MPS 243589
2006 10 20.23528 00 45 29.46 +12 36 48.5 19.3 R 644 – Palomar Mountain/NEAT MPS 243589
2006 10 20.25581 00 45 28.44 +12 36 42.0 20.4 R 644 – Palomar Mountain/NEAT MPS 243589
2007 11 09.50630 09 10 53.47 +17 59 14.2 20.5 V G96 – Mt. Lemmon Survey MPS 239594
2007 11 09.51132 09 10 53.72 +17 59 12.6 21.5 V G96 – Mt. Lemmon Survey MPS 239594
2007 11 09.51641 09 10 54.01 +17 59 12.1 20.9 V G96 – Mt. Lemmon Survey MPS 239594
2007 11 09.52139 09 10 54.22 +17 59 10.2 21.0 V G96 – Mt. Lemmon Survey MPS 239594
2007 12 30.49003 09 25 03.72 +15 58 35.2 20.2 V G96 – Mt. Lemmon Survey MPS 239594
2007 12 30.49858 09 25 03.50 +15 58 35.2 20.1 V G96 – Mt. Lemmon Survey MPS 239594
2007 12 30.50699 09 25 03.21 +15 58 35.4 20.2 V G96 – Mt. Lemmon Survey MPS 239594
2008 01 11.38757 09 18 14.01 +16 09 56.1 20.1 V 691 – Steward Observatory, Kitt Peak-Spacewatch MPS 234434
2008 01 11.40521 09 18 13.20 +16 09 57.9 20.0 V 691 – Steward Observatory, Kitt Peak-Spacewatch MPS 234434
2008 01 11.42284 09 18 12.41 +16 09 59.2 20.1 V 691 – Steward Observatory, Kitt Peak-Spacewatch MPS 234434
2008 01 15.41138 09 15 08.66 +16 16 31.0 20.3 V 691 – Steward Observatory, Kitt Peak-Spacewatch MPS 234434
2008 01 15.42949 09 15 07.71 +16 16 33.2 20.1 V 691 – Steward Observatory, Kitt Peak-Spacewatch MPS 234434
2008 01 15.44784 09 15 06.79 +16 16 34.9 20.0 V 691 – Steward Observatory, Kitt Peak-Spacewatch MPS 234434
2008 01 19.38633 09 11 47.04 +16 23 59.3 19.7 V 691 – Steward Observatory, Kitt Peak-Spacewatch MPS 239594
2008 01 19.40447 09 11 46.04 +16 24 01.3 19.9 V 691 – Steward Observatory, Kitt Peak-Spacewatch MPS 239594
2008 01 19.42260 09 11 45.06 +16 24 03.6 19.8 V 691 – Steward Observatory, Kitt Peak-Spacewatch MPS 239594
2008 01 30.31301 09 01 27.51 +16 47 19.2 19.3 V 703 – Catalina Sky Survey MPS 239594
2008 01 30.32044 09 01 27.01 +16 47 19.9 19.4 V 703 – Catalina Sky Survey MPS 239594
2008 01 30.32788 09 01 26.54 +16 47 21.8 19.8 V 703 – Catalina Sky Survey MPS 239594
2008 01 30.33531 09 01 26.07 +16 47 21.8 19.2 V 703 – Catalina Sky Survey MPS 239594
2008 02 03.28705 08 57 30.74 +16 55 59.5 19.4 V G96 – Mt. Lemmon Survey MPS 236376
2008 02 03.29257 08 57 30.38 +16 56 00.5 19.4 V G96 – Mt. Lemmon Survey MPS 236376
2008 02 03.30153 08 57 29.87 +16 56 02.2 19.8   704 – Lincoln Laboratory ETS, New Mexico MPS 240841
2008 02 03.31424 08 57 29.07 +16 56 04.5 19.6   704 – Lincoln Laboratory ETS, New Mexico MPS 240841
2008 02 03.32660 08 57 28.32 +16 56 06.0 19.7   704 – Lincoln Laboratory ETS, New Mexico MPS 240841
2008 02 06.14365 08 54 41.38 +17 02 03.5 19.2 r 699 – Lowell Observatory-LONEOS MPS 236376
2008 02 06.16924 08 54 39.76 +17 02 05.3 19.8 r 699 – Lowell Observatory-LONEOS MPS 236376
2008 02 06.19486 08 54 38.19 +17 02 10.1 18.8 r 699 – Lowell Observatory-LONEOS MPS 236376
2008 02 06.22048 08 54 36.66 +17 02 12.4 20.1 r 699 – Lowell Observatory-LONEOS MPS 236376
2008 02 08.21514 08 52 39.46 +17 06 16.5 20.2 V 703 – Catalina Sky Survey MPS 237675
2008 02 08.22181 08 52 39.00 +17 06 18.0 19.5 V 703 – Catalina Sky Survey MPS 237675
2008 02 08.22849 08 52 38.78 +17 06 19.3 19.5 V 703 – Catalina Sky Survey MPS 237675
2008 02 08.23519 08 52 38.28 +17 06 19.9 19.4 V 703 – Catalina Sky Survey MPS 237675
2008 02 11.23912 08 49 45.67 +17 12 09.6 20.2   704 – Lincoln Laboratory ETS, New Mexico MPS 237675
2008 02 11.25137 08 49 44.93 +17 12 10.9 20.2   704 – Lincoln Laboratory ETS, New Mexico MPS 237675
2008 02 11.26356 08 49 44.25 +17 12 11.9 20.1   704 – Lincoln Laboratory ETS, New Mexico MPS 237675
2008 02 13.22280 08 47 54.92 +17 15 44.3 20.2   704 – Lincoln Laboratory ETS, New Mexico MPS 237675
2008 02 13.23482 08 47 54.24 +17 15 45.7 20.0   704 – Lincoln Laboratory ETS, New Mexico MPS 237675
2008 02 13.24684 08 47 53.57 +17 15 47.1 20.1   704 – Lincoln Laboratory ETS, New Mexico MPS 237675
2008 02 13.25876 08 47 52.95 +17 15 48.1 20.0   704 – Lincoln Laboratory ETS, New Mexico MPS 237675
2008 02 24.25704 08 38 50.20 +17 31 08.3 19.5 V G96 – Mt. Lemmon Survey MPS 239594
2008 02 24.26259 08 38 49.95 +17 31 08.9 19.5 V G96 – Mt. Lemmon Survey MPS 239594
2008 02 24.26818 08 38 49.74 +17 31 08.9 20.5 V G96 – Mt. Lemmon Survey MPS 239594
2008 02 24.27374 08 38 49.48 +17 31 09.4 20.6 V G96 – Mt. Lemmon Survey MPS 239594
2008 02 27.11327 08 36 54.45 +17 33 41.2 20.0 V 691 – Steward Observatory, Kitt Peak-Spacewatch MPS 239594
2008 02 27.13169 08 36 53.77 +17 33 42.2 20.3 V 691 – Steward Observatory, Kitt Peak-Spacewatch MPS 239594
2008 02 27.14745 08 36 53.13 +17 33 43.1 20.3 V 691 – Steward Observatory, Kitt Peak-Spacewatch MPS 239594
2010 06 02.501003 22 56 36.00 -05 45 12.8   C51 – WISE MPS 330831
2010 06 02.633308 22 56 42.66 -05 44 18.8   C51 – WISE MPS 330831
2010 06 02.765611 22 56 49.21 -05 43 25.7   C51 – WISE MPS 330831
2010 06 02.897916 22 56 55.77 -05 42 33.4   C51 – WISE MPS 330831
2010 06 02.96400 22 56 59.11 -05 42 06.8   C51 – WISE MPS 330831
2010 06 02.964131 22 56 59.076 -05 42 05.62   C51 – WISE MPS 903785
2010 06 03.030219 22 57 02.30 -05 41 38.5   C51 – WISE MPS 330831
2010 06 03.096307 22 57 05.60 -05 41 12.8   C51 – WISE MPS 330831
2010 06 03.162523 22 57 08.87 -05 40 46.7   C51 – WISE MPS 330831
2010 06 03.228611 22 57 12.09 -05 40 20.5   C51 – WISE MPS 330831
2010 06 03.625521 22 57 31.627 -05 37 42.06   C51 – WISE MPS 903785
2010 06 03.757824 22 57 38.186 -05 36 50.15   C51 – WISE MPS 903785
2010 06 05.94077 22 59 22.75 -05 22 30.3   C51 – WISE MPS 330831
2010 06 06.006861 22 59 25.77 -05 22 04.4   C51 – WISE MPS 330831
2010 06 06.07308 22 59 28.93 -05 21 39.6   C51 – WISE MPS 330831
2010 06 06.139164 22 59 32.02 -05 21 14.6   C51 – WISE MPS 330831
2010 06 06.205381 22 59 35.10 -05 20 48.6   C51 – WISE MPS 330831
2010 06 06.271469 22 59 38.12 -05 20 22.5   C51 – WISE MPS 330831
2010 06 06.403772 22 59 44.33 -05 19 31.3   C51 – WISE MPS 330831
2010 06 06.536076 22 59 50.47 -05 18 39.9   C51 – WISE MPS 330831
2010 06 06.668380 22 59 56.61 -05 17 48.8   C51 – WISE MPS 330831
2010 08 07.40967 23 09 46.98 -02 03 36.2 19.1 J W91 – VHS-VISTA, Cerro Paranal MPS 678286
2010 08 07.41908 23 09 46.64 -02 03 37.0 18.3 H W91 – VHS-VISTA, Cerro Paranal MPS 678286
2010 09 04.32313 22 48 32.36 -03 15 57.0 19.5 V G96 – Mt. Lemmon Survey MPS 347166
2010 09 04.32881 22 48 32.04 -03 15 58.2 19.5 V G96 – Mt. Lemmon Survey MPS 347166
2010 09 04.33451 22 48 31.75 -03 15 59.5 19.6 V G96 – Mt. Lemmon Survey MPS 347166
2010 09 04.34029 22 48 31.42 -03 16 00.8 19.4 V G96 – Mt. Lemmon Survey MPS 347166
2010 09 16.298178 22 38 18.123 -04 01 48.08 19.77 i F51 – Pan-STARRS 1, Haleakala MPS 366805
2010 09 16.309533 22 38 17.556 -04 01 50.66 19.72 i F51 – Pan-STARRS 1, Haleakala MPS 366805
2012 01 04.13981 06 15 49.18 +27 35 23.2   691 – Steward Observatory, Kitt Peak-Spacewatch MPS 407052
2012 01 04.15013 06 15 48.54 +27 35 22.2   691 – Steward Observatory, Kitt Peak-Spacewatch MPS 407052
